sat.trackr.live / text

‹ back to catalog

STARLINK-35761

NORAD 66961 · 2025-288C

PAYLOAD ACTIVE UNKNOWN

§ Identity

Operator
Country
US
Launch date
2025-12-08
Launch site
AFETR
Launch vehicle
Mass (kg)
RCS (m²)

Purposes: comms

External: N2YO · Heavens-Above · Gunter

§ Orbital elements

Epoch: 2026-05-24T21:02:25.488960Z

Period
94.27 min
Inclination
42.9970°
Eccentricity
0.0002051
Mean motion
15.27601376 rev/d
Perigee alt
481.6 km
Apogee alt
484.4 km
Semi-major
6,861.1 km
B*
9.5079e-4
RAAN
312.8151°
Arg perigee
280.4677°
Mean anomaly
79.5944°
Rev number
2,694

§ Raw data

STARLINK-357611 66961U 25288C   26144.87668390  .00026012  00000+0  95079-3 0  99902 66961  42.9970 312.8151 0002051 280.4677  79.5944 15.27601376 26941

JSON: /api/v1/satellites/66961 · /tle

For live sub-satellite position, see the globe view (requires WebGL).

§ Visibility from observer

Set your observer location to see the next 7 days of passes ≥ 10°. The values pass through the URL so the page stays shareable.

No JS? Fill the form by hand. The geolocation button needs JavaScript.